Location: Ku?niki
(51.4449°N, 17.8974°E)
Time: 16:57:19
(UTC+00:00)

XW-2A - Pass Details

Date: 11 July 2022
Orbit: 396 x 406 km, 97.2° (Epoch: 10 August)

Event Time Altitude Azimuth Distance (km) Brightness Sun altitude
Exits shadow 20:35:06 - 206° (SSW) 2,156 ? -10.5°
Reaches altitude 10° 20:37:14 10° 228° (SW) 1,444 ? -10.6°
Maximum altitude 20:39:14 16° 268° (W) 1,144 ? -10.8°
Drops below altitude 10° 20:41:15 10° 309° (NW) 1,455 ? -11.0°
Sets 20:43:48 0° 332° (NNW) 2,323 ? -11.2°
